Weather in Naberezhne

Ukraine / Zaporizhia Region     46°39′29″N   36°13′47″E
temp.,
°C
wind,
m/s
gust,
m/s
humid.,
%
clouds,
%
prec.,
mm/h
press.,
hPa
HPBL,
m
5 december, sun
sun523:00+4ne71192100 5.8 1009312
02:00+4ne5893100 9.8 1008309
05:00+4n5789100 1.8 1008309
08:00+4n4686100 1.9 1010287
11:00+4n4481100 0.1 1012354
14:00+5nnw4477100 0.1 1013490
17:00+4nne3382100 0.0 1015241
20:00+3ene2287100 0.0 101691
6 december, mon
mon623:00+3e2288100 0.0 101662
02:00+3e228987 0.0 101784
05:00+4e348949 0.0 1017107
08:00+5ese4589100 0.0 1018159
11:00+6se588984 0.1 1018334
14:00+6ese699179 0.2 1017263
17:00+7ese61092100 0.0 1017244
20:00+7ese51093100 0.0 1017192
7 december, tue
tue723:00+8ese5896100 0.0 1017154
02:00+8ese5995100 0.0 1016161
05:00+8ese5991100 0.0 1015167
08:00+8ese51088100 0.0 1015183
11:00+10ese61077100 0.0 1014207
14:00+9ese5977100 0.0 1011200
17:00+8e5881100 0.0 1010124
20:00+8e6108293 0.0 1009152
8 december, wed
wed823:00+7e611823 0.0 1008181
02:00+7e81386100 0.0 1007234
05:00+7e81387100 0.0 1006220
08:00+7e81386100 0.0 1006238
11:00+9e81277100 0.0 1005303
14:00+9e6879100 0.0 1005217
17:00+9ese6128194 0.0 1005205
20:00+9se9148492 0.0 1006304
9 december, thu
thu923:00+8s61293100 0.0 1007340
02:00+8ssw81493100 0.4 1008572
05:00+7sw91495100 1.3 1010565
08:00+7sw91494100 2.5 1012624
11:00+8wsw81284100 1.0 1014676
14:00+8wsw81281100 1.0 1015701
17:00+7wsw71081100 0.0 1017624
20:00+7wsw697978 0.0 1019632